sat.trackr.live / text

‹ back to catalog

COSMOS 2507 (RODNIK-S *)

NORAD 40920 · 2015-050A

PAYLOAD ACTIVE UNKNOWN

§ Identity

Operator
Country
CIS
Launch date
2015-09-23
Launch site
PLMSC
Launch vehicle
Mass (kg)
RCS (m²)
1.56

External: N2YO · Heavens-Above · Gunter

§ Orbital elements

Epoch: 2026-09-13T05:06:11.348640Z

Period
115.86 min
Inclination
82.4954°
Eccentricity
0.0010398
Mean motion
12.42929086 rev/d
Perigee alt
1,486.0 km
Apogee alt
1,502.4 km
Semi-major
7,872.3 km
B*
-5.0534e-6
RAAN
24.8477°
Arg perigee
154.0776°
Mean anomaly
206.0826°
Rev number
49,779

§ Raw data

COSMOS 2507 (RODNIK-S *)1 40920U 15050A   26256.21263135  .00000009  00000+0 -50534-5 0  99912 40920  82.4954  24.8477 0010398 154.0776 206.0826 12.42929086497795

JSON: /api/v1/satellites/40920 · /tle

For live sub-satellite position, see the globe view (requires WebGL).

§ Visibility from observer

Set your observer location to see the next 7 days of passes ≥ 10°. The values pass through the URL so the page stays shareable.

No JS? Fill the form by hand. The geolocation button needs JavaScript.

§ Radio — SatNOGS DB

ModeDescriptionDownlinkUplink
FM UHF Unknown 388.687 MHz

1 transmitter · refreshed weekly from db.satnogs.org